Location: Quartzsite
(33.6639°N, 114.2299°W)
Time: 10:58:27
(UTC-07:00)

OTV 5 (USA 277) - Visible Passes

Search period start: 21 September 2018 00:00
Search period end: 01 October 2018 00:00
Orbit: 387 x 394 km, 54.5° (Epoch: 08 September)

Date Brightness Start Highest point End Pass type
(mag) Time Alt. Az. Time Alt. Az. Time Alt. Az.
24 Sep ? 06:01:25 10° SSW 06:04:34 62° SE 06:07:43 10° NE visible
25 Sep ? 05:05:50 10° S 05:08:22 22° SE 05:10:54 10° ENE visible
26 Sep ? 05:44:50 11° WSW 05:47:46 54° NW 05:50:54 10° NNE visible
27 Sep ? 04:51:21 50° SE 04:51:27 50° SE 04:54:34 10° NE visible
28 Sep ? 05:30:08 22° WNW 05:31:02 25° NW 05:33:46 10° NNE visible
29 Sep ? 04:36:21 24° NNE 04:36:21 24° NNE 04:37:47 10° NE visible
30 Sep ? 05:14:52 14° NNW 05:14:52 14° NNW 05:16:13 10° N visible
